Location: Catenanuova
(37.5690°N, 14.6870°E)
Time: 02:10:18
(UTC+02:00)

Tiangong - Pass Details

Date: 31 May 2024
Orbit: 378 x 384 km, 41.5° (Epoch: 21 June)

Event Time Altitude Azimuth Distance (km) Brightness Sun altitude
Exits shadow 04:31:30 - 291° (WNW) 1,739 0.9 -12.3°
Reaches altitude 10° 04:32:22 10° 292° (WNW) 1,383 0.4 -12.2°
Maximum altitude 04:35:28 71° 17° (NNE) 401 -1.9 -11.7°
Drops below altitude 10° 04:38:35 10° 102° (ESE) 1,380 1.2 -11.2°
Sets 04:40:39 0° 105° (ESE) 2,231 2.3 -10.9°
